Buckland, AK

2:21 AM AKDT on March 25, 2017 (GMT -0800)
Buckland

Weather History for PABL - October, 2012

Change the Weather History Date:

Wednesday, October 31, 2012

  Actual Average (PASK) Record (PASK)
Temperature  
Mean Temperature 16 °F -  
Max Temperature 21 °F 16 °F 37 °F (2002)
Min Temperature 10 °F 8 °F -16 °F (2011)
Degree Days  
Heating Degree Days 48    
Moisture  
Dew Point 9 °F    
Average Humidity 71    
Maximum Humidity 79    
Minimum Humidity 63    
Precipitation  
Precipitation 0.00 in - - ()
Sea Level Pressure  
Sea Level Pressure 30.41 in    
Wind  
Wind Speed 12 mph (NW)    
Max Wind Speed 21 mph    
Max Gust Speed 28 mph    
Visibility 10 miles    
Events      
Averages and records for this station are not official NWS values.
T = Trace of Precipitation, MM = Missing Value Source: NWS Daily Summary

Daily Weather History Graph

Daily Weather History Graph

Search for Another Location

Airport or City:

Trip Planner

Search our weather history database for the weather conditions in past years. The results will help you decide how hot, cold, wet, or windy it might be!

Date:

Astronomy

Oct. 31, 2012 Rise Set
Actual Time 10:38 AM AKDT 6:16 PM AKDT
Civil Twilight 9:40 AM AKDT 7:14 PM AKDT
Nautical Twilight 8:39 AM AKDT 8:15 PM AKDT
Astronomical Twilight 7:40 AM AKDT 9:14 PM AKDT
Moon 6:29 PM AKDT (10/31) 1:35 PM AKDT (10/31)
Length of Visible Light 9h 33m
Length of Day
7h 37m
Waning Gibbous, 96% of the Moon is Illuminated
Oct 31
Waning Gibbous
Nov 6
Last Quarter
Nov 13
New
Nov 20
First Quarter
Nov 28
Full

Hourly Weather History & Observations

Time (AKDT) Temp. Windchill Dew Point Humidity Pressure Visibility Wind Dir Wind Speed Gust Speed Precip Events Conditions
12:16 AM 17.6 °F 5.0 °F 12.2 °F 79% 30.45 in 10.0 mi NNW 11.5 mph - N/A   Clear
12:36 AM 17.6 °F 3.2 °F 12.2 °F 79% 30.45 in 10.0 mi NNW 15.0 mph - N/A   Clear
12:56 AM 19.4 °F 6.0 °F 12.2 °F 74% 30.45 in 10.0 mi NNW 13.8 mph 20.7 mph N/A   Clear
1:16 AM 17.6 °F 5.7 °F 10.4 °F 73% 30.45 in 10.0 mi NNW 10.4 mph - N/A   Clear
1:36 AM 17.6 °F 4.3 °F 10.4 °F 73% 30.44 in 10.0 mi NW 12.7 mph - N/A   Clear
1:56 AM 17.6 °F 3.2 °F 10.4 °F 73% 30.44 in 10.0 mi NW 15.0 mph 18.4 mph N/A   Clear
2:16 AM 17.6 °F 3.7 °F 10.4 °F 73% 30.44 in 10.0 mi NNW 13.8 mph 21.9 mph N/A   Clear
2:36 AM 19.4 °F 6.0 °F 10.4 °F 68% 30.44 in 10.0 mi North 13.8 mph 21.9 mph N/A   Clear
2:56 AM 21.2 °F 7.8 °F 12.2 °F 68% 30.44 in 10.0 mi NNW 15.0 mph 19.6 mph N/A   Clear
3:16 AM 19.4 °F 7.2 °F 10.4 °F 68% 30.44 in 10.0 mi NNW 11.5 mph - N/A   Clear
3:36 AM 19.4 °F 6.6 °F 10.4 °F 68% 30.44 in 10.0 mi NNW 12.7 mph 17.3 mph N/A   Clear
3:56 AM 19.4 °F 7.2 °F 10.4 °F 68% 30.44 in 10.0 mi NW 11.5 mph - N/A   Clear
4:16 AM 17.6 °F 5.7 °F 10.4 °F 73% 30.44 in 10.0 mi NNW 10.4 mph - N/A   Clear
4:36 AM 19.4 °F 5.5 °F 10.4 °F 68% 30.44 in 10.0 mi NNW 15.0 mph 20.7 mph N/A   Clear
4:56 AM 19.4 °F 7.2 °F 10.4 °F 68% 30.44 in 10.0 mi NNW 11.5 mph - N/A   Clear
5:16 AM 17.6 °F 2.2 °F 8.6 °F 68% 30.43 in 10.0 mi NNW 17.3 mph 23.0 mph N/A   Clear
5:36 AM 19.4 °F 5.0 °F 10.4 °F 68% 30.43 in 10.0 mi NNW 16.1 mph 21.9 mph N/A   Clear
5:56 AM 19.4 °F 5.5 °F 10.4 °F 68% 30.44 in 10.0 mi North 15.0 mph 20.7 mph N/A   Clear
6:16 AM 19.4 °F 6.6 °F 10.4 °F 68% 30.44 in 10.0 mi North 12.7 mph - N/A   Clear
6:36 AM 19.4 °F 6.0 °F 10.4 °F 68% 30.43 in 10.0 mi North 13.8 mph 18.4 mph N/A   Clear
6:56 AM 19.4 °F 8.6 °F 10.4 °F 68% 30.44 in 10.0 mi NNW 9.2 mph 18.4 mph N/A   Clear
7:16 AM 17.6 °F 6.4 °F 8.6 °F 68% 30.44 in 10.0 mi NW 9.2 mph - N/A   Clear
7:36 AM 14.0 °F 2.9 °F 6.8 °F 73% 30.44 in 10.0 mi West 8.1 mph - N/A   Clear
7:56 AM 14.0 °F 2.9 °F 6.8 °F 73% 30.43 in 10.0 mi WNW 8.1 mph - N/A   Clear
8:16 AM 15.8 °F 2.7 °F 8.6 °F 73% 30.43 in 10.0 mi NNW 11.5 mph - N/A   Clear
8:36 AM 19.4 °F 6.6 °F 8.6 °F 63% 30.43 in 10.0 mi North 12.7 mph 20.7 mph N/A   Clear
8:56 AM 17.6 °F 4.3 °F 10.4 °F 73% 30.43 in 10.0 mi NNW 12.7 mph - N/A   Clear
9:16 AM 17.6 °F 7.3 °F 8.6 °F 68% 30.44 in 10.0 mi NW 8.1 mph - N/A   Clear
9:36 AM 15.8 °F 3.4 °F 8.6 °F 73% 30.44 in 10.0 mi NW 10.4 mph - N/A   Clear
9:56 AM 15.8 °F 3.4 °F 8.6 °F 73% 30.43 in 10.0 mi NNW 10.4 mph - N/A   Clear
10:16 AM 15.8 °F 2.7 °F 8.6 °F 73% 30.43 in 10.0 mi NNW 11.5 mph - N/A   Clear
10:36 AM 15.8 °F 1.4 °F 8.6 °F 73% 30.43 in 10.0 mi NNW 13.8 mph - N/A   Clear
10:56 AM 15.8 °F 0.3 °F 8.6 °F 73% 30.43 in 10.0 mi NNW 16.1 mph - N/A   Clear
11:16 AM 15.8 °F 1.4 °F 8.6 °F 73% 30.43 in 10.0 mi North 13.8 mph - N/A   Clear
11:36 AM 17.6 °F 3.7 °F 8.6 °F 68% 30.44 in 10.0 mi North 13.8 mph - N/A   Clear
11:56 AM 17.6 °F 1.7 °F 8.6 °F 68% 30.42 in 10.0 mi North 18.4 mph 23.0 mph N/A   Clear
12:16 PM 17.6 °F 1.7 °F 8.6 °F 68% 30.41 in 10.0 mi North 18.4 mph 27.6 mph N/A   Clear
12:36 PM 17.6 °F 7.3 °F 8.6 °F 68% 30.43 in 10.0 mi North 8.1 mph - N/A   Clear
12:56 PM 17.6 °F 3.7 °F 10.4 °F 73% 30.43 in 10.0 mi NNW 13.8 mph 18.4 mph N/A   Clear
1:16 PM 17.6 °F 2.2 °F 8.6 °F 68% 30.42 in 10.0 mi North 17.3 mph 24.2 mph N/A   Clear
1:36 PM 17.6 °F 0.9 °F 8.6 °F 68% 30.41 in 10.0 mi North 20.7 mph 26.5 mph N/A   Clear
1:56 PM 17.6 °F 2.7 °F 8.6 °F 68% 30.41 in 10.0 mi North 16.1 mph 23.0 mph N/A   Clear
2:16 PM 17.6 °F 5.7 °F 10.4 °F 73% 30.41 in 10.0 mi North 10.4 mph - N/A   Clear
2:36 PM 17.6 °F 5.0 °F 8.6 °F 68% 30.41 in 10.0 mi North 11.5 mph 17.3 mph N/A   Clear
2:56 PM 17.6 °F 3.7 °F 8.6 °F 68% 30.40 in 10.0 mi North 13.8 mph 21.9 mph N/A   Clear
3:16 PM 17.6 °F 4.3 °F 10.4 °F 73% 30.40 in 10.0 mi NNW 12.7 mph - N/A   Clear
3:36 PM 17.6 °F 4.3 °F 10.4 °F 73% 30.39 in 10.0 mi NNW 12.7 mph - N/A   Clear
3:56 PM 17.6 °F 5.0 °F 10.4 °F 73% 30.39 in 10.0 mi NW 11.5 mph - N/A   Clear
4:16 PM 17.6 °F 5.0 °F 10.4 °F 73% 30.38 in 10.0 mi NNW 11.5 mph - N/A   Clear
4:36 PM 17.6 °F 8.2 °F 10.4 °F 73% 30.39 in 10.0 mi WNW 6.9 mph - N/A   Clear
4:56 PM 17.6 °F 6.4 °F 10.4 °F 73% 30.38 in 10.0 mi WNW 9.2 mph - N/A   Clear
5:16 PM 17.6 °F 5.7 °F 10.4 °F 73% 30.38 in 10.0 mi WNW 10.4 mph - N/A   Clear
5:36 PM 17.6 °F 7.3 °F 10.4 °F 73% 30.38 in 10.0 mi NW 8.1 mph - N/A   Clear
5:56 PM 15.8 °F 2.1 °F 6.8 °F 68% 30.38 in 10.0 mi WNW 12.7 mph - N/A   Clear
6:16 PM 14.0 °F -0.2 °F 8.6 °F 79% 30.38 in 10.0 mi West 12.7 mph 18.4 mph N/A   Clear
6:36 PM 19.4 °F 5.5 °F 10.4 °F 68% 30.38 in 10.0 mi NW 15.0 mph 21.9 mph N/A   Clear
6:56 PM 17.6 °F 7.3 °F 8.6 °F 68% 30.38 in 10.0 mi NW 8.1 mph - N/A   Clear
7:16 PM 15.8 °F 2.7 °F 8.6 °F 73% 30.38 in 10.0 mi NNW 11.5 mph - N/A   Clear
7:36 PM 14.0 °F 0.5 °F 6.8 °F 73% 30.39 in 10.0 mi WNW 11.5 mph - N/A   Clear
7:56 PM 14.0 °F 2.0 °F 6.8 °F 73% 30.38 in 10.0 mi NW 9.2 mph - N/A   Clear
8:16 PM 15.8 °F 4.2 °F 10.4 °F 79% 30.38 in 10.0 mi WNW 9.2 mph - N/A   Clear
8:36 PM 15.8 °F 5.1 °F 6.8 °F 68% 30.38 in 10.0 mi WNW 8.1 mph - N/A   Clear
8:56 PM 14.0 °F 2.9 °F 6.8 °F 73% 30.39 in 10.0 mi West 8.1 mph - N/A   Clear
9:16 PM 12.2 °F -2.5 °F 5.0 °F 73% 30.38 in 10.0 mi WNW 12.7 mph 17.3 mph N/A   Clear
9:36 PM 12.2 °F -1.0 °F 6.8 °F 79% 30.39 in 10.0 mi West 10.4 mph - N/A   Clear
9:56 PM 12.2 °F -1.0 °F 5.0 °F 73% 30.39 in 10.0 mi WNW 10.4 mph - N/A   Clear
10:16 PM 12.2 °F -2.5 °F 5.0 °F 73% 30.38 in 10.0 mi WNW 12.7 mph 17.3 mph N/A   Clear
10:36 PM 15.8 °F 4.2 °F 6.8 °F 68% 30.38 in 10.0 mi West 9.2 mph - N/A   Clear
10:56 PM 15.8 °F 5.1 °F 6.8 °F 68% 30.38 in 10.0 mi NNW 8.1 mph - N/A   Clear
11:16 PM 15.8 °F 10.2 °F 6.8 °F 68% 30.39 in 10.0 mi NW 3.5 mph - N/A   Clear
11:36 PM 12.2 °F 0.7 °F 6.8 °F 79% 30.39 in 10.0 mi NW 8.1 mph - N/A   Clear
11:56 PM 10.4 °F -0.4 °F 3.2 °F 73% 30.39 in 10.0 mi NW 6.9 mph - N/A   Clear